Location: Asheville, NC
(35.6000°N, 82.5500°W)
Time: 18:15:32
(UTC-04:00)

SRMSAT - Pass Details

Date: 10 January 2018
Orbit: 848 x 866 km, 20.0° (Epoch: 20 July)

Event Time Altitude Azimuth Distance (km) Brightness Sun altitude
Rises 18:09:13 0° 223° (SW) 3,421 ? -7.0°
Reaches altitude 10° 18:13:13 10° 198° (SSW) 2,483 ? -7.8°
Maximum altitude 18:16:00 13° 169° (S) 2,241 ? -8.3°
Drops below altitude 10° 18:18:47 10° 141° (SE) 2,481 ? -8.8°
Sets 18:22:45 0° 116° (ESE) 3,415 ? -9.6°
Enters shadow 18:22:50 - 116° (ESE) 3,435 ? -9.6°
